Theta_e
300 299 299 300 301 302 304 306 307 305 304 304 305 304 303 303 305 306 305 304 308 309
297 297 297 297 298 298 300 302 301 300 300 300 301 301 300 299 299 301 301 302 302 304
296 296 296 295 295 296 296 298 298 298 298 298 298 298 297 296 297 297 297 299 298 298
296 296 296 294 294 294 294 295 295 295 295 295 295 295 294 294 294 294 294 295 295 295
295 295 294 293 293 293 293 293 293 293 293 293 293 293 292 291 292 291 291 291 292 292
293 293 293 293 293 293 291 291 291 291 290 290 291 291 291 291 290 290 290 290 290 290
291 291 291 291 290 290 290 289 289 289 289 289 289 290 289 290 289 288 289 289 288 288
289 289 288 287 287 288 287 287 288 288 287 287 288 289 287 287 286 285 286 286 286 286
287 285 285 285 285 284 284 285 285 284 284 284 287 290 291 290 284 284 284 284 284 283
283 283 283 283 283 283 283 283 283 283 283 282 283 289 290 290 285 284 283 283 282 282
281 281 281 281 281 282 282 282 282 282 282 282 283 288 289 288 284 283 283 283 282 281
280 279 280 279 279 280 281 281 281 282 281 281 281 285 286 286 283 283 283 283 281 280
278 278 277 278 278 279 280 281 281 281 281 281 281 284 285 285 282 281 282 284 281 282
275 275 277 277 277 277 278 279 278 279 280 279 280 281 285 285 282 282 282 282 280 278
Wind_Speed
3 2 3 4 4 4 3 3 4 4 3 5 5 4 4 3 4 5 4 6 5 5
3 3 3 4 3 3 4 4 4 4 5 5 6 6 5 4 5 5 5 6 6 5
4 4 5 5 5 6 6 5 6 5 6 6 5 6 6 5 5 6 5 5 6 5
5 5 5 5 5 5 4 6 5 6 6 6 6 6 6 6 6 7 7 6 6 7
6 6 5 6 6 6 6 5 6 6 6 6 6 6 7 7 6 7 7 6 7 7
6 6 6 6 7 7 7 6 6 6 7 7 6 7 7 7 7 7 7 6 7 6
7 7 7 7 7 7 6 7 6 6 7 6 6 6 6 7 7 7 8 7 7 6
7 7 7 7 8 8 7 8 7 8 7 7 7 7 7 7 7 8 8 7 7 6
7 7 7 7 8 8 8 8 7 7 7 8 7 11 13 11 7 8 7 9 7 6
6 7 7 7 7 8 8 7 8 8 7 8 7 14 16 14 7 9 10 9 7 6
7 8 8 8 9 8 7 7 8 8 7 8 7 16 17 16 8 9 10 10 7 7
9 10 10 10 10 9 9 10 9 8 8 9 9 15 18 16 8 9 11 9 7 7
9 10 10 10 11 9 9 11 9 11 10 10 11 15 19 16 7 10 9 10 8 11
8 9 9 9 9 9 10 10 9 10 10 8 9 9 18 19 10 10 10 10 6 3
Wind_Direction
333 330 336 336 338 330 326 320 342 347 330 304 301 298 297 291 280 268 268 270 264 267
314 309 286 293 296 292 292 287 291 296 295 290 290 289 282 273 275 279 269 257 257 259
307 310 305 307 303 300 297 300 306 301 288 285 282 276 273 269 274 272 263 262 265 261
325 315 314 301 295 285 288 296 298 285 286 285 280 279 277 270 270 272 272 269 273 265
338 335 330 324 319 314 307 308 294 294 288 283 279 275 270 272 267 266 270 267 270 265
352 356 348 341 338 334 319 306 301 288 277 269 267 270 266 262 262 258 262 259 260 262
357 356 353 341 332 324 317 306 298 287 284 283 280 274 274 272 273 273 267 258 253 249
354 349 343 340 336 331 328 320 311 311 308 301 297 291 282 272 273 271 272 270 264 246
354 343 334 330 323 319 313 311 309 304 294 295 293 289 288 280 260 264 273 270 257 245
345 331 326 320 317 310 305 303 300 296 295 291 284 287 285 279 256 261 263 261 248 238
340 330 325 323 317 310 307 302 297 292 288 288 287 293 294 286 260 256 255 255 245 228
338 330 327 323 319 315 313 311 302 298 293 290 293 298 303 301 281 264 265 255 237 222
331 330 322 319 322 320 314 310 312 312 310 302 302 305 310 309 296 287 283 277 256 228
328 319 313 319 318 314 316 316 313 317 321 300 299 303 315 317 311 302 292 282 257 204